Flag for United Arab Emirates Weather past 2 weeks in Dubai, Dubai, United Arab Emirates

Now
73 °F

Sunny.


Feels Like: 73 °F
Forecast: 77 / 92 °F
Wind: 9 mph from South

Location: Dubai International Airport

Current Time: Apr 26, 2015 at 7:16:59 AM

Latest Report: Apr 26, 2015 at 6:00 AM


Visibility: 10 mi

Pressure: 29.83 "Hg

Humidity: 83%

Dew point: 68 °F

Location of DubaiLocation

Historic Weather in Dubai — Graph

°F

Dubai temperature yesterday

Maximum temperature yesterday: 91 °F (at 12:00 PM)
Minimum temperature yesterday: 81 °F (at 5:00 AM)
Average temperature yesterday: 85 °F

Past Weeks' High & Low Weather Summary

 TemperatureHumidityPressure
High104 °F (Apr 12, 12:00 PM)94% (Apr 15, 4:00 AM)30.01 "Hg (Apr 15, 4:00 AM)
Low68 °F (Apr 21, 6:00 AM)7% (Apr 24, 2:00 PM)29.74 "Hg (Apr 19, 4:00 AM)
Average85 °F43%29.85 "Hg
* Reported Apr 11 6:00 AM — Apr 26 6:00 AM, Dubai, Weather by CustomWeather, © 2015

Note: Actual official high and low records may vary slightly from our data, if they occured in-between our weather recording intervals... More about our weather records

Advertising

Dubai weather history for previous 24 hours

 ConditionsComfort  
Time TempWeatherWind HumidityBarometerVisibility
6:00 AM
Sun, Apr 26
73 °FSunny.9 mph83%29.83 "Hg10 mi
5:00 AM73 °FClear.9 mph83%29.80 "Hg10 mi
4:00 AM75 °FPassing clouds.10 mph83%29.80 "HgN/A
3:00 AM75 °FClear.12 mph83%29.77 "Hg10 mi
2:00 AM75 °FClear.12 mph83%29.80 "Hg10 mi
1:00 AM77 °FClear.8 mph79%29.80 "Hg10 mi
12:00 AM79 °FClear.8 mph74%29.83 "Hg10 mi
11:00 PM
Sat, Apr 25
81 °FPassing clouds.8 mph74%29.83 "HgN/A
10:00 PM81 °FPassing clouds.7 mph74%29.83 "HgN/A
9:00 PM81 °FClear.10 mph74%29.80 "Hg10 mi
8:00 PM81 °FClear.8 mph74%29.77 "Hg6 mi
7:00 PM82 °FClear.8 mph70%29.77 "Hg4 mi
6:00 PM84 °FClear.12 mph66%29.74 "Hg4 mi
5:00 PM86 °FClear.13 mph59%29.74 "Hg4 mi
4:00 PM88 °FClear.13 mph52%29.77 "Hg4 mi
3:00 PM88 °FDuststorm.14 mph49%29.77 "Hg3 mi
2:00 PM88 °FDuststorm.14 mph55%29.80 "Hg3 mi
1:00 PM90 °FDuststorm.10 mph49%29.80 "Hg3 mi
12:00 PM91 °FDuststorm.9 mph44%29.83 "Hg3 mi
11:00 AM90 °FDuststorm.7 mph43%29.83 "Hg3 mi
10:00 AM90 °FDuststorm.8 mph38%29.83 "Hg3 mi
9:00 AM88 °FClear.8 mph49%29.83 "Hg4 mi
8:00 AM88 °FClear.6 mph35%29.83 "Hg4 mi
7:00 AM82 °FClear.5 mph26%29.80 "Hg4 mi
Weather by CustomWeather, © 2015

See weather overviewHow to use our weather pages